Location: Liscomb Game Sanctuary
(45.1633°N, 62.5575°W)
Time: 19:01:13
(UTC-03:00)

Cosmos 921 Rocket - Pass Details

Date: 22 February 2018
Orbit: 572 x 632 km, 75.8° (Epoch: 19 June)

Event Time Altitude Azimuth Distance (km) Brightness Sun altitude
Rises 18:47:10 0° 345° (NNW) 2,937 6.7 -11.2°
Reaches altitude 10° 18:49:29 10° 350° (N) 2,023 5.8 -11.6°
Maximum altitude 18:53:56 53° 68° (ENE) 774 3.2 -12.3°
Drops below altitude 10° 18:58:18 10° 146° (SE) 1,993 5.3 -13.1°
Sets 19:00:34 0° 151° (SSE) 2,887 6.2 -13.5°
